Torna al catalogo

STARLINK-34432

AttivoComunicazioniVLEO
NORAD 64426·PAYLOAD·🇺🇸 United States

Lanciato Jun 17, 2025 da Vandenberg Space Force Base

Loading…

Prossimi Passaggi (prossime 24 ore)

TLE

AggiornatoSource: CelesTrak SupGP

Epoca: Sep 14, 2026, 22:48 UTC

1 64426C 25129Q   26257.95048611  .00047590  00000+0  16561-2 0  2579
2 64426  69.9989 315.7543 0003491 267.5016 121.7656 15.29541624    14

Traccia STARLINK-34432 in tempo reale con AllMySat

Download on the App Store